time_stamp(utc),avg(mph),gust(mph),direction(deg),12m_air_temp(f),sonic_u(cm/s),sonic_v(cm/s),sonic_w(cm/s),pressure,2m_air_temp(f),pyranometer(W/m^2)
"2019-08-28 00:04:18+00",11.1,12.1,,70.3,480,126,21,1015.11,70.2,0
"2019-08-28 00:09:18+00",12.9,13.9,,70.4,563,127,20,1015.21,70.2,0
"2019-08-28 00:14:18+00",11.9,13.9,,70.4,513,159,23,1015.24,70.3,0
"2019-08-28 00:19:18+00",9.4,10.4,,70.4,403,135,27,1015.21,70.3,0
"2019-08-28 00:24:18+00",8.6,9.6,,70.4,362,137,26,1015.17,70.3,0
"2019-08-28 00:29:18+00",9.5,11.5,,70.4,404,146,18,1015.2,70.3,0
"2019-08-28 00:34:18+00",10.2,11.2,,70.3,443,152,21,1015.25,70.2,0
"2019-08-28 00:39:18+00",8.0,10.0,,70.3,319,163,26,1015.29,70.2,0
"2019-08-28 00:44:18+00",9.3,10.3,,70.3,365,196,21,1015.28,70.1,0
"2019-08-28 00:49:18+00",10.2,11.2,,70.2,406,214,17,1015.24,70.1,0
"2019-08-28 00:54:18+00",9.7,10.7,,70.3,398,179,11,1015.3,70.1,0
"2019-08-28 00:59:18+00",8.6,9.6,,70.3,367,142,20,1015.32,70.1,0
"2019-08-28 01:04:18+00",10.6,12.6,,70.3,452,169,19,1015.43,70.1,0
"2019-08-28 01:09:18+00",9.2,11.2,,70.4,390,137,23,1015.46,70.2,0
"2019-08-28 01:14:18+00",9.2,11.2,,70.4,400,143,14,1015.45,70.2,0
"2019-08-28 01:19:18+00",7.9,8.9,,70.5,344,114,26,1015.41,70.2,0
"2019-08-28 01:24:18+00",8.6,9.6,,70.5,368,131,19,1015.41,70.3,0
"2019-08-28 01:29:18+00",9.1,10.1,,70.5,396,125,26,1015.33,70.3,0
"2019-08-28 01:34:18+00",9.2,11.2,,70.5,402,144,20,1015.33,70.3,0
"2019-08-28 01:39:18+00",8.5,9.5,,70.5,335,167,13,1015.38,70.3,0
"2019-08-28 01:44:18+00",7.8,9.8,,70.6,303,156,15,1015.35,70.3,0
"2019-08-28 01:49:18+00",8.6,10.6,,70.7,340,171,26,1015.42,70.3,0
"2019-08-28 01:54:18+00",8.3,9.3,,70.7,337,152,10,1015.5,70.4,0
"2019-08-28 01:59:18+00",7.1,8.1,,70.7,293,121,16,1015.62,70.4,0
"2019-08-28 02:04:18+00",7.7,8.7,,70.7,325,120,9,1015.52,70.4,0
"2019-08-28 02:09:18+00",8.3,10.3,,70.7,355,109,17,1015.55,70.5,0
"2019-08-28 02:14:18+00",9.8,10.8,,70.8,431,114,20,1015.62,70.5,0
"2019-08-28 02:19:18+00",9.7,11.7,,70.9,423,91,8,1015.58,70.6,0
"2019-08-28 02:24:18+00",9.0,10.0,,70.9,392,80,23,1015.62,70.6,0
"2019-08-28 02:29:18+00",9.9,10.9,,70.9,432,100,16,1015.56,70.6,0
"2019-08-28 02:34:18+00",9.6,11.6,,70.9,417,95,20,1015.56,70.6,0
"2019-08-28 02:39:18+00",8.3,10.3,,70.9,364,59,20,1015.55,70.7,0
"2019-08-28 02:44:18+00",8.4,9.4,,71,367,83,17,1015.57,70.7,0
"2019-08-28 02:49:18+00",8.2,9.2,,71,353,79,18,1015.5,70.7,0
"2019-08-28 02:54:18+00",9.3,10.3,,71,397,132,11,1015.37,70.7,0
"2019-08-28 02:59:18+00",7.4,9.4,,71,307,125,8,1015.38,70.7,0
"2019-08-28 03:04:18+00",6.5,7.5,,71,266,104,18,1015.5,70.7,0
"2019-08-28 03:09:18+00",7.2,8.2,,71,285,130,15,1015.4,70.7,0
"2019-08-28 03:14:18+00",6.9,7.9,,71,279,116,7,1015.53,70.7,0
"2019-08-28 03:19:18+00",7.7,8.7,,71,324,116,9,1015.49,70.7,0
"2019-08-28 03:24:18+00",8.6,10.6,,71,359,132,5,1015.45,70.7,0
"2019-08-28 03:29:18+00",8.0,9.0,,71,343,107,7,1015.33,70.8,0
"2019-08-28 03:34:18+00",8.2,9.2,,71.1,357,89,21,1015.22,70.8,0
"2019-08-28 03:39:18+00",8.4,9.4,,71.1,364,87,33,1015.17,70.8,0
"2019-08-28 03:44:18+00",10.0,11.0,,71.1,433,119,24,1015.04,70.8,0
"2019-08-28 03:49:18+00",8.2,9.2,,71.1,346,116,14,1014.91,70.8,0
"2019-08-28 03:54:18+00",8.5,9.5,,71.1,366,115,26,1014.93,70.8,0
"2019-08-28 03:59:18+00",7.7,8.7,,71,318,129,15,1014.84,70.8,0
"2019-08-28 04:04:18+00",7.8,8.8,,71,299,160,19,1014.83,70.7,0
"2019-08-28 04:09:18+00",7.2,8.2,,71,272,154,18,1014.89,70.7,0
"2019-08-28 04:14:18+00",7.4,8.4,,71.1,265,185,12,1014.88,70.8,0
"2019-08-28 04:19:18+00",6.3,7.3,,71.2,232,135,14,1015.01,70.8,0
"2019-08-28 04:24:18+00",6.3,7.3,,71.2,212,159,8,1014.9,70.8,0
"2019-08-28 04:29:18+00",7.2,8.2,,71.2,269,154,16,1014.88,70.8,0
"2019-08-28 04:34:18+00",7.1,8.1,,71.2,243,184,2,1014.85,70.9,0
"2019-08-28 04:39:18+00",6.8,7.8,,71.2,253,150,22,1014.81,70.9,0
"2019-08-28 04:44:18+00",6.6,7.6,,71.2,267,110,9,1014.68,70.9,0
"2019-08-28 04:49:18+00",7.0,8.0,,71.2,284,108,14,1014.62,70.9,0
"2019-08-28 04:54:18+00",8.6,10.6,,71.2,373,108,21,1014.55,70.9,0
"2019-08-28 04:59:18+00",7.7,8.7,,71.2,334,96,25,1014.49,70.9,0
"2019-08-28 05:04:18+00",8.2,9.2,,71.3,355,98,20,1014.41,70.9,0
"2019-08-28 05:09:18+00",8.0,9.0,,71.3,345,77,27,1014.37,70.9,0
"2019-08-28 05:14:18+00",9.2,10.2,,71.3,401,93,7,1014.35,71,0
"2019-08-28 05:19:18+00",8.1,10.1,,71.4,333,133,6,1014.25,71,0
"2019-08-28 05:24:18+00",8.2,10.2,,71.3,360,83,22,1014.32,71,0
"2019-08-28 05:29:18+00",8.1,9.1,,71.3,336,115,13,1014.28,71,0
"2019-08-28 05:34:18+00",8.2,10.2,,71.3,346,128,14,1014.19,71,0
"2019-08-28 05:39:18+00",9.0,10.0,,71.3,386,115,20,1014.11,71,0
"2019-08-28 05:44:18+00",9.2,11.2,,71.3,401,114,5,1014.06,71,0
"2019-08-28 05:49:18+00",10.1,12.1,,71.3,438,123,19,1013.93,70.9,0
"2019-08-28 05:54:18+00",9.8,10.8,,71.3,420,120,18,1013.96,70.9,0
"2019-08-28 05:59:18+00",7.6,9.6,,71.2,329,94,19,1013.94,70.9,0
"2019-08-28 06:04:18+00",8.3,10.3,,71.2,345,125,12,1013.89,70.8,0
"2019-08-28 06:09:18+00",8.1,9.1,,71.2,352,109,27,1013.75,70.7,0
"2019-08-28 06:14:18+00",8.4,9.4,,71.2,368,106,18,1013.78,70.7,0
"2019-08-28 06:19:18+00",7.9,8.9,,71.2,339,101,23,1013.6,70.7,0
"2019-08-28 06:24:18+00",8.2,10.2,,71.2,350,123,19,1013.67,70.7,0
"2019-08-28 06:29:18+00",7.7,8.7,,71.1,325,118,20,1013.65,70.6,0
"2019-08-28 06:34:18+00",8.0,10.0,,71.2,339,110,22,1013.57,70.6,0
"2019-08-28 06:39:18+00",8.8,9.8,,71.2,379,130,20,1013.45,70.7,0
"2019-08-28 06:44:18+00",9.8,11.8,,71.2,423,121,19,1013.25,70.6,0
"2019-08-28 06:49:18+00",10.2,11.2,,71.2,439,122,31,1013.17,70.7,0
"2019-08-28 06:54:18+00",8.6,9.6,,71.2,359,152,14,1013.16,70.7,0
"2019-08-28 06:59:18+00",10.1,11.1,,71.3,391,211,14,1013.05,70.7,0
"2019-08-28 07:04:18+00",8.1,9.1,,71.4,290,201,16,1013.07,70.7,0
"2019-08-28 07:09:18+00",8.4,9.4,,71.4,289,219,17,1013.06,70.8,0
"2019-08-28 07:14:18+00",9.0,10.0,,71.4,320,227,19,1013.01,70.9,0
"2019-08-28 07:19:18+00",9.2,10.2,,71.4,343,221,15,1012.88,70.9,0
"2019-08-28 07:24:18+00",8.6,10.6,,71.4,306,218,19,1012.81,70.9,0
"2019-08-28 07:29:18+00",8.3,10.3,,71.4,322,171,19,1012.82,70.9,0
"2019-08-28 07:34:18+00",7.2,8.2,,71.3,285,131,15,1012.71,70.9,0
"2019-08-28 07:39:18+00",6.8,7.8,,71.3,285,147,7,1012.83,70.9,0
"2019-08-28 07:44:18+00",5.5,7.5,,71.3,276,108,14,1012.81,70.9,0
"2019-08-28 07:49:18+00",6.7,8.7,,71.3,330,107,20,1012.64,70.9,0
"2019-08-28 07:54:18+00",6.2,7.2,,71.3,287,143,22,1012.62,70.8,0
"2019-08-28 07:59:18+00",7.8,9.8,,71.3,319,194,19,1012.55,70.9,0
"2019-08-28 08:04:18+00",8.1,9.1,,71.4,327,204,23,1012.44,70.9,0
"2019-08-28 08:09:18+00",7.6,8.6,,71.4,313,184,28,1012.42,70.9,0
"2019-08-28 08:14:18+00",7.6,9.6,,71.4,279,218,23,1012.43,71,0
"2019-08-28 08:19:18+00",8.1,9.1,,71.4,311,223,11,1012.34,71,0
"2019-08-28 08:24:18+00",8.0,10.0,,71.4,335,182,26,1012.35,71,0
"2019-08-28 08:29:18+00",9.7,10.7,,71.5,379,236,21,1012.14,70.9,0
"2019-08-28 08:34:18+00",8.1,9.1,,71.4,313,214,19,1012.23,71,0
"2019-08-28 08:39:18+00",8.9,9.9,,71.4,350,215,17,1012.11,71,0
"2019-08-28 08:44:18+00",8.8,10.8,,71.3,355,209,20,1012.08,70.9,0
"2019-08-28 08:49:18+00",9.6,11.6,,71.4,397,199,13,1012.09,70.8,0
"2019-08-28 08:54:18+00",10.0,12.0,,71.5,421,192,17,1012.11,70.7,0
"2019-08-28 08:59:18+00",10.2,11.2,,71.5,409,225,19,1012.06,70.8,0
"2019-08-28 09:04:18+00",10.5,12.5,,71.5,406,248,18,1012.06,70.9,0
"2019-08-28 09:09:18+00",10.0,12.0,,71.5,387,233,34,1011.96,70.9,0
"2019-08-28 09:14:18+00",10.8,11.8,,71.5,414,252,25,1011.85,71,0
"2019-08-28 09:19:18+00",10.2,11.2,,71.5,366,270,14,1011.93,71,0
"2019-08-28 09:24:18+00",9.6,11.6,,71.4,359,245,23,1011.99,71,0
"2019-08-28 09:29:18+00",10.4,12.4,,71.4,405,236,25,1011.97,70.9,0
"2019-08-28 09:34:18+00",11.3,13.3,,71.4,408,289,20,1012.03,70.9,0
"2019-08-28 09:39:18+00",11.2,13.2,,71.3,385,302,23,1012.01,70.8,0
"2019-08-28 09:44:18+00",11.4,13.4,,71.3,351,325,12,1011.86,70.8,0
"2019-08-28 09:49:18+00",9.7,10.7,,71.1,241,339,8,1011.8,70.7,0
"2019-08-28 09:54:18+00",9.4,10.4,,71.1,234,331,8,1011.88,70.6,0
"2019-08-28 09:59:18+00",11.3,13.3,,71,265,410,4,1011.89,70.5,0
"2019-08-28 10:04:18+00",11.0,13.0,,71,256,402,3,1011.95,70.4,0
"2019-08-28 10:09:18+00",8.0,11.0,,70.9,162,308,2,1011.94,70.4,0
"2019-08-28 10:14:18+00",8.2,10.2,,70.9,164,308,10,1011.99,70.4,0
"2019-08-28 10:19:18+00",8.4,10.4,,70.8,160,310,13,1012.01,70.4,0
"2019-08-28 10:24:18+00",9.2,12.2,,70.7,189,347,7,1012.17,70.4,0
"2019-08-28 10:29:18+00",9.9,11.9,,70.7,247,343,7,1012.31,70.5,0
"2019-08-28 10:34:18+00",11.7,12.7,,70.8,317,363,0,1012.27,70.5,0
"2019-08-28 10:39:18+00",11.0,12.0,,70.8,317,329,16,1012.25,70.6,0
"2019-08-28 10:44:18+00",13.1,15.1,,70.9,349,413,0,1012.27,70.6,0
"2019-08-28 10:49:18+00",13.7,15.7,,70.9,392,413,1,1012.22,70.7,0
"2019-08-28 10:54:18+00",13.3,14.3,,70.9,424,371,8,1012.24,70.7,0
"2019-08-28 10:59:18+00",14.1,16.1,,70.8,417,418,-6,1012.14,70.8,0
"2019-08-28 11:04:18+00",13.1,15.1,,70.8,366,407,-3,1012.14,70.8,0
"2019-08-28 11:09:18+00",13.2,15.2,,70.8,420,372,19,1012.07,70.8,0
"2019-08-28 11:14:18+00",12.1,14.1,,70.8,312,398,-1,1012.03,70.8,0
"2019-08-28 11:19:18+00",11.5,13.5,,70.9,283,405,5,1011.94,70.8,0
"2019-08-28 11:24:18+00",13.7,15.7,,70.9,423,401,3,1011.91,70.8,0
"2019-08-28 11:29:18+00",10.4,12.4,,71,335,289,31,1011.88,70.9,0
"2019-08-28 11:34:18+00",14.3,17.3,,71,394,453,1,1011.86,70.8,0
"2019-08-28 11:39:18+00",12.3,15.3,,71,329,394,8,1011.85,70.9,0
"2019-08-28 11:44:18+00",15.2,17.2,,70.9,409,491,1,1011.8,70.8,0
"2019-08-28 11:49:18+00",14.4,15.4,,70.8,424,430,12,1011.82,70.8,0
"2019-08-28 11:54:18+00",14.0,16.0,,70.8,415,419,9,1011.99,70.8,0
"2019-08-28 11:59:18+00",14.6,16.6,,70.7,543,354,22,1011.97,70.8,1
"2019-08-28 12:04:18+00",12.9,14.9,,70.6,472,322,35,1011.79,70.7,8.5
"2019-08-28 12:09:18+00",13.4,15.4,,70.6,462,355,29,1011.79,70.8,16.9
"2019-08-28 12:14:18+00",13.6,15.6,,70.5,478,353,23,1011.82,70.8,0.1
"2019-08-28 12:19:18+00",15.4,19.4,,70.3,540,406,27,1011.75,70.6,0.8
"2019-08-28 12:24:18+00",13.0,15.0,,70.2,473,323,24,1011.64,70.5,0.5
"2019-08-28 12:29:18+00",16.0,18.0,,70.1,547,431,9,1011.67,70.4,5.1
"2019-08-28 12:34:18+00",17.3,19.3,,69.8,579,478,5,1011.52,70.3,12.8
"2019-08-28 12:39:18+00",16.3,17.3,,69.5,-867,2786,-1272,1011.49,70,20.1
"2019-08-28 12:44:18+00",17.9,20.9,,69.2,16063,397,180,1011.45,69.7,-0.1
"2019-08-28 12:49:18+00",15.1,18.1,,69.3,1139,-796,710,1011.48,69.5,39.6
"2019-08-28 12:54:18+00",13.0,16.0,,69.4,330,439,7,1011.65,69.6,16.1
"2019-08-28 12:59:18+00",14.0,17.0,,69.3,301,509,7,1011.6,69.5,32.8
"2019-08-28 13:04:18+00",18.5,21.5,,69.2,514,551,20,1011.49,69.3,37.4
"2019-08-28 13:09:18+00",15.9,17.9,,69.3,463,494,9,1011.51,69.4,55.6
"2019-08-28 13:14:18+00",16.5,18.5,,69,478,505,14,1011.55,69.1,68.5
"2019-08-28 13:19:18+00",16.5,19.5,,69.2,434,542,6,1011.46,69.3,82.5
"2019-08-28 13:24:18+00",16.4,18.4,,69.5,399,571,-7,1011.45,69.7,94.9
"2019-08-28 13:29:18+00",17.8,21.8,,69.6,472,569,2,1011.36,69.9,80.5
"2019-08-28 13:34:18+00",18.2,20.2,,69.6,486,594,-2,1011.45,70.1,97.3
"2019-08-28 13:39:18+00",16.9,18.9,,69.6,527,486,12,1011.48,70.3,82.7
"2019-08-28 13:44:18+00",15.8,18.8,,69.6,426,524,6,1011.45,70.3,97.4
"2019-08-28 13:49:18+00",17.3,20.3,,69.5,550,489,15,1011.46,70.3,66.8
"2019-08-28 13:54:18+00",18.2,22.2,,69,656,464,38,1011.48,70,62.2
"2019-08-28 13:59:18+00",19.5,21.5,,68.4,1281,-536,621,1011.52,69.5,100
"2019-08-28 14:54:18+00",13.4,17.4,,68.8,394,24,261,1011.42,69.2,111.6
"2019-08-28 14:59:18+00",13.4,15.4,,68.8,400,124,215,1011.37,69.5,106.2
"2019-08-28 15:04:18+00",10.8,13.8,,69,53,469,19,1011.46,69.5,83.7
"2019-08-28 15:09:18+00",11.8,15.8,,69,159,462,18,1011.42,69.7,138.7
"2019-08-28 15:14:18+00",12.9,15.9,,69.1,479,0,287,1011.42,70,180.3
"2019-08-28 15:19:18+00",11.3,14.3,,69.5,200,422,31,1011.44,70.4,135.9
"2019-08-28 15:24:18+00",12.7,15.7,,69.4,261,474,4,1011.47,70.2,129.4
"2019-08-28 15:29:18+00",13.7,15.7,,69.2,589,36,251,1011.43,70,146.5
"2019-08-28 15:34:18+00",14.6,17.6,,69.2,388,473,9,1011.39,70,139.1
"2019-08-28 15:39:18+00",14.0,17.0,,69.1,370,440,11,1011.49,69.8,157.5
"2019-08-28 15:44:18+00",14.0,16.0,,69.1,372,440,7,1011.39,69.8,139.9
"2019-08-28 15:49:18+00",17.9,19.9,,68.9,448,612,-17,1011.36,69.8,138.1
"2019-08-28 15:54:18+00",16.7,17.7,,69,370,629,-12,1011.38,69.9,160.5
"2019-08-28 15:59:18+00",15.3,17.3,,69.2,296,594,-13,1011.33,70.2,136.3
"2019-08-28 16:04:18+00",13.5,14.5,,69.3,93,579,9,1011.22,70.3,142.5
"2019-08-28 16:09:18+00",10.4,14.4,,69.8,214,376,19,1011.1,70.5,160.5
"2019-08-28 16:14:18+00",14.3,15.3,,69.7,301,535,5,1010.93,70.6,154.1
"2019-08-28 16:19:18+00",13.4,15.4,,69.6,254,512,11,1010.92,70.5,148.6
"2019-08-28 16:24:18+00",12.1,15.1,,70,220,455,19,1010.85,70.7,155.6
"2019-08-28 16:29:18+00",13.0,16.0,,70.2,258,496,4,1010.75,71,170.7
"2019-08-28 16:34:18+00",13.3,16.3,,70.4,295,503,8,1010.7,71.1,116.6
"2019-08-28 16:39:18+00",12.1,15.1,,70.3,225,458,16,1010.63,71.1,117
"2019-08-28 16:44:18+00",13.4,15.4,,70.2,282,501,3,1010.56,71,103.1
"2019-08-28 16:49:18+00",12.4,15.4,,70.3,294,433,25,1010.65,71.1,75.6
"2019-08-28 17:14:18+00",11.4,14.4,,70.3,235,436,-1,1010.23,71.2,75
"2019-08-28 17:19:18+00",9.2,11.2,,70.3,39,401,19,1010.1,71.2,92.2
"2019-08-28 17:24:18+00",11.9,12.9,,70.4,196,468,-13,1010.04,71.5,162.2
"2019-08-28 17:29:18+00",10.4,12.4,,70.8,136,429,-7,1010.06,71.6,165.7
"2019-08-28 17:34:18+00",11.1,12.1,,70.8,63,476,-6,1010.04,72,180.3
"2019-08-28 17:39:18+00",11.4,12.4,,70.8,152,450,-13,1009.9,72.1,104.6
"2019-08-28 17:44:18+00",9.4,11.4,,71.1,128,371,1,1009.9,72.4,235.2
"2019-08-28 17:49:18+00",10.2,13.2,,71.2,121,409,0,1009.84,72.6,158.8
"2019-08-28 17:54:18+00",10.8,11.8,,71.3,182,429,-20,1009.81,72.8,183.6
"2019-08-28 17:59:18+00",10.1,12.1,,71.5,-3,441,13,1009.8,73.2,125.6
"2019-08-28 18:04:18+00",10.3,12.3,,71.8,85,435,-2,1009.69,73.6,234.2
"2019-08-28 18:09:18+00",8.8,10.8,,72.4,157,333,24,1009.76,74,149
"2019-08-28 18:14:18+00",9.2,10.2,,72,91,381,-15,1009.78,74,180.4
"2019-08-28 18:19:18+00",8.9,9.9,,72.2,46,391,-12,1009.65,74.2,236.3
"2019-08-28 18:24:18+00",6.4,8.4,,72.9,117,241,31,1009.63,74.9,238.6
"2019-08-28 18:29:18+00",7.9,8.9,,72.8,73,347,0,1009.62,75.2,212
"2019-08-28 18:34:18+00",7.3,10.3,,73.1,136,275,18,1009.59,75.2,141.1
"2019-08-28 18:39:18+00",8.1,10.1,,73.3,124,326,-2,1009.53,75.2,139.3
"2019-08-28 18:44:18+00",7.5,8.5,,73.1,105,303,-6,1009.48,74.9,126.3
"2019-08-28 18:49:18+00",9.5,13.5,,73.4,72,394,12,1009.45,74.9,61.8
"2019-08-28 18:54:18+00",9.3,10.3,,73.1,-47,405,10,1009.48,74.8,70.3
"2019-08-28 18:59:18+00",9.5,10.5,,73.1,38,415,10,1009.41,74.7,74.7
"2019-08-28 19:04:18+00",9.2,11.2,,73,-87,406,19,1009.39,74.7,48.3
"2019-08-28 19:09:18+00",8.9,9.9,,72.6,34,391,12,1009.35,74.5,106
"2019-08-28 19:14:18+00",9.4,11.4,,72.5,119,381,-11,1009.2,74.4,218.3
"2019-08-28 19:19:18+00",8.0,9.0,,72.7,52,340,5,1009.11,74.6,112.2
"2019-08-28 19:24:18+00",8.7,10.7,,72.9,-51,383,22,1009,74.8,176.9
"2019-08-28 19:29:18+00",10.5,11.5,,73,25,452,0,1008.97,75.2,183.1
"2019-08-28 19:34:18+00",10.3,11.3,,72.9,23,440,12,1009.07,75.4,160.6
"2019-08-28 19:39:18+00",11.4,12.4,,73.1,94,488,8,1008.98,75.7,235
"2019-08-28 19:44:18+00",8.8,11.8,,73.3,76,355,20,1008.99,76.1,213.2
"2019-08-28 19:49:18+00",10.0,13.0,,73.7,241,345,7,1008.96,76.3,169.4
"2019-08-28 19:54:18+00",6.5,9.5,,74.1,109,255,34,1009.1,76.3,145.4
"2019-08-28 19:59:18+00",6.5,7.5,,74.1,115,237,35,1009.09,76.4,195
"2019-08-28 20:04:18+00",9.2,11.2,,74.1,219,316,8,1008.97,76.3,159.6
"2019-08-28 20:09:18+00",9.4,11.4,,74.3,94,392,-2,1008.92,76.3,191.2
"2019-08-28 20:14:18+00",8.4,10.4,,74.9,85,344,23,1008.86,77.2,332.4
"2019-08-28 20:19:18+00",8.9,9.9,,74.8,115,352,0,1008.76,77.5,130.8
"2019-08-28 20:24:18+00",8.6,10.6,,74.5,87,353,-17,1008.84,77,93
"2019-08-28 20:29:18+00",7.0,9.0,,74.6,61,278,29,1008.95,76.6,73.6
"2019-08-28 20:34:18+00",8.9,10.9,,74.7,69,380,4,1008.92,76.6,110.9
"2019-08-28 20:39:18+00",8.4,10.4,,75.1,-37,370,18,1008.95,76.9,135.8
"2019-08-28 20:44:18+00",10.1,12.1,,75.5,-60,428,15,1009,77.2,81.8
"2019-08-28 20:49:18+00",7.3,9.3,,75.4,34,327,13,1009.1,77,60.7
"2019-08-28 20:54:18+00",8.6,10.6,,75.3,186,312,9,1008.98,76.7,43.1
"2019-08-28 20:59:18+00",7.7,9.7,,75.1,158,298,-1,1009.07,76.2,36.5
"2019-08-28 21:04:18+00",8.6,9.6,,75.1,227,311,5,1009.17,75.9,38.1
"2019-08-28 21:09:18+00",6.4,8.4,,75.1,157,225,16,1009.18,75.9,36.5
"2019-08-28 21:14:18+00",6.8,7.8,,75.1,219,213,18,1009.24,75.8,31.4
"2019-08-28 21:19:18+00",6.5,7.5,,74.9,208,183,18,1009.28,75.6,28.2
"2019-08-28 21:24:18+00",7.8,8.8,,74.8,206,246,1,1009.25,75.4,14.9
"2019-08-28 21:29:18+00",8.0,9.0,,74.7,240,231,7,1009.25,75.2,16.2
"2019-08-28 21:34:18+00",9.2,10.2,,74.5,288,263,4,1009.17,75,19.2
"2019-08-28 21:39:18+00",8.5,9.5,,74.4,219,279,0,1009.15,74.8,25.7
"2019-08-28 21:44:18+00",7.0,8.0,,74.1,284,153,20,1009.33,74.7,33.5
"2019-08-28 21:49:18+00",7.4,8.4,,73.9,285,163,19,1009.28,74.5,29
"2019-08-28 21:54:18+00",7.7,9.7,,73.8,299,162,11,1009.26,74.4,23.9
"2019-08-28 21:59:18+00",7.2,8.2,,73.8,281,149,18,1009.22,74.2,17.4
"2019-08-28 22:04:18+00",7.6,8.6,,73.8,313,132,28,1009.12,74.2,18.3
"2019-08-28 22:09:18+00",7.0,8.0,,73.8,282,136,23,1009.15,74.2,16.2
"2019-08-28 22:14:18+00",8.5,9.5,,73.8,315,203,12,1009.06,74.1,11.3
"2019-08-28 22:19:18+00",8.0,9.0,,73.7,335,130,3,1009.1,74.1,7
"2019-08-28 22:24:18+00",8.0,9.0,,73.5,344,108,25,1009.2,74,1.5
"2019-08-28 22:29:18+00",7.8,8.8,,73.3,334,107,6,1009.26,73.9,0.1
"2019-08-28 22:34:18+00",7.5,8.5,,73.2,318,116,16,1009.2,73.7,0
"2019-08-28 22:39:18+00",6.9,8.9,,73.2,291,116,12,1009.3,73.6,0
"2019-08-28 22:44:18+00",7.2,8.2,,73.2,315,95,17,1009.22,73.5,0
"2019-08-28 22:49:18+00",7.4,8.4,,73.1,332,108,13,1009.23,73.5,0
"2019-08-28 22:54:18+00",7.3,8.3,,73.1,312,116,11,1009.16,73.4,0
"2019-08-28 22:59:18+00",7.7,8.7,,73.1,317,141,10,1009.18,73.3,0
"2019-08-28 23:04:18+00",7.4,8.4,,73.1,289,150,18,1009.2,73.2,0
"2019-08-28 23:09:18+00",7.3,8.3,,73.1,314,119,15,1009.12,73.1,0
"2019-08-28 23:14:18+00",6.8,7.8,,73,293,101,15,1009.13,73.1,0
"2019-08-28 23:19:18+00",5.3,6.3,,72.9,226,78,11,1009.19,73,0
"2019-08-28 23:24:18+00",5.8,6.8,,72.9,243,92,17,1009.14,72.9,0
"2019-08-28 23:29:18+00",5.6,6.6,,72.8,243,74,19,1009.22,72.8,0
"2019-08-28 23:34:18+00",4.8,5.8,,72.8,217,19,14,1009.24,72.8,0
"2019-08-28 23:39:18+00",5.4,5.4,,72.6,241,-36,3,1009.21,72.7,0
"2019-08-28 23:44:18+00",5.8,6.8,,72.5,259,-38,4,1009.27,72.5,0
"2019-08-28 23:49:18+00",6.0,7.0,,72.3,268,8,14,1009.12,72.4,0
"2019-08-28 23:54:18+00",4.4,4.4,,72.3,199,0,7,1009.02,72.4,0
"2019-08-28 23:59:18+00",4.5,5.5,,72.2,204,-6,5,1009.03,72.3,0
